Hourly Data Report for November 25, 2014

All times are specified in Local Standard Time (LST). Add 1 hour to adjust for Daylight Saving Time where and when it is observed.

Metadata including Station Name, Province, Latitude, Longitude, Elevation, Climate ID, WMO ID, TC ID
CHATHAM KENT
ONTARIO
Latitude: 42°18'21.000" N Longitude: 82°04'57.000" W Elevation: 196.60 m
Climate ID: 6131414 WMO ID: TC ID: YCK
Hourly Data Report for November 25, 2014
Temp Definition
°C

Dew Point Temp Definition
°C

Rel Hum Definition
%

Wind Dir Definition
10's deg
Wind Spd Definition
km/h

Visibility Definition
km

Stn Press Definition
kPa

Hmdx Definition

Wind Chill Definition

Weather Definition

00:00 Legend Double Dagger 2.0 -1.5 78 24 50 16.1 98.31 LegendNANA
01:00 Legend Double Dagger 1.9 -1.2 80 24 41 16.1 98.37 LegendNANA
02:00 Legend Double Dagger 1.9 -1.2 80 24 39 16.1 98.42 LegendNANA
03:00 Legend Double Dagger 1.5 -2.1 77 24 45 16.1 98.55 LegendNANA
04:00 Legend Double Dagger 1.2 -1.8 80 24 39 16.1 98.58 LegendNANA
05:00 Legend Double Dagger 1.4 -1.6 81 24 43 16.1 98.61 LegendNANA
06:00 Legend Double Dagger 1.3 -1.5 82 24 46 16.1 98.70 LegendNANA
07:00 Legend Double Dagger 0.7 -2.4 80 25 41 16.1 98.80 LegendNANA
08:00 Legend Double Dagger 0.6 -2.6 79 25 37 16.1 98.89 LegendNANA
09:00 Legend Double Dagger 0.6 -2.6 79 25 43 16.1 98.96 LegendNANA
10:00 Legend Double Dagger 0.4 -2.6 80 26 37 16.1 99.06 LegendNANA
11:00 Legend Double Dagger 0.3 -2.5 82 26 32 16.1 99.19 LegendNANA
12:00 Legend Double Dagger 0.3 -2.5 82 26 34 16.1 99.23 LegendNANA
13:00 Legend Double Dagger 0.0 -2.6 83 27 24 16.1 99.27 -6 LegendNANA
14:00 Legend Double Dagger -0.1 -2.7 83 26 28 16.1 99.34 -6 LegendNANA
15:00 Legend Double Dagger 0.0 -3.0 80 26 28 16.1 99.42 -6 LegendNANA
16:00 Legend Double Dagger 0.1 -3.3 78 25 28 16.1 99.50 LegendNANA
17:00 Legend Double Dagger -0.2 -3.6 78 26 21 16.1 99.58 -6 LegendNANA
18:00 Legend Double Dagger -0.4 -3.3 81 26 21 16.1 99.65 -6 LegendNANA
19:00 Legend Double Dagger -0.4 -3.8 78 26 17 16.1 99.72 -5 LegendNANA
20:00 Legend Double Dagger -0.6 -3.8 79 25 17 16.1 99.82 -6 LegendNANA
21:00 Legend Double Dagger -0.6 -3.6 80 24 18 16.1 99.89 -6 LegendNANA
22:00 Legend Double Dagger -0.7 -3.9 79 24 15 16.1 99.95 -5 LegendNANA
23:00 Legend Double Dagger -0.8 -3.9 79 23 9 16.1 99.93 -4 LegendNANA

Notes on Data Quality.

Legend
  • E = Estimated
  • M = Missing
  • NA = Not Available
  • ‡ = Partner data that is not subject to review by the National Climate Archives